sat.trackr.live / text

‹ back to catalog

FLOCK 4BE-28

NORAD 60519 · 2024-149BD

PAYLOAD ACTIVE UNKNOWN

§ Identity

Operator
Country
US
Launch date
2024-08-16
Launch site
AFWTR
Launch vehicle
Mass (kg)
RCS (m²)

Purposes: earth_obs

External: N2YO · Heavens-Above · Gunter

§ Orbital elements

Epoch: 2026-05-25T03:11:14.655264Z

Period
93.26 min
Inclination
97.3744°
Eccentricity
0.0004131
Mean motion
15.43992725 rev/d
Perigee alt
431.5 km
Apogee alt
437.2 km
Semi-major
6,812.5 km
B*
3.9309e-4
RAAN
230.5618°
Arg perigee
33.2655°
Mean anomaly
326.8852°
Rev number
9,888

§ Raw data

FLOCK 4BE-281 60519U 24149BD  26145.13280851  .00017846  00000+0  39309-3 0  99992 60519  97.3744 230.5618 0004131  33.2655 326.8852 15.43992725 98889

JSON: /api/v1/satellites/60519 · /tle

For live sub-satellite position, see the globe view (requires WebGL).

§ Visibility from observer

Set your observer location to see the next 7 days of passes ≥ 10°. The values pass through the URL so the page stays shareable.

No JS? Fill the form by hand. The geolocation button needs JavaScript.